Wind_Speed
14 7 7 16 17 13 12 14 16 18 13 20 31 18 21 11 10 17 19 19 20 20 23 27 31 29 27 26 24 28 30 29 29 29 28 26 24 23 23 20 21 19 16 13
6 7 11 15 16 18 14 8 13 13 25 14 18 22 17 25 10 15 15 18 22 23 26 29 29 29 26 25 27 31 32 31 32 32 30 27 26 25 23 22 21 23 24 21
10 3 3 16 15 21 18 9 9 3 18 15 13 16 17 21 23 17 12 19 23 29 32 33 34 31 29 28 29 33 35 33 31 31 28 29 27 24 23 24 20 20 20 20
7 4 8 14 15 19 15 17 10 7 9 11 15 6 17 17 16 14 17 17 22 25 25 29 33 34 31 31 29 31 32 30 30 32 30 31 30 26 19 14 16 18 18 15
3 10 14 6 16 18 11 5 8 7 3 6 12 4 8 12 17 19 17 19 21 23 26 28 30 31 31 30 29 31 32 33 34 32 35 30 24 16 13 15 18 20 16 14
12 5 4 4 9 16 7 12 5 2 3 9 12 10 10 15 27 21 16 18 19 22 23 23 23 21 25 27 30 32 34 34 31 31 32 28 24 23 23 22 14 14 14 11
2 9 5 5 3 8 14 8 5 5 5 5 7 8 4 17 11 17 16 18 19 22 25 26 27 29 30 29 29 30 31 32 30 26 29 33 31 31 26 26 17 15 18 15
2 4 13 14 10 8 13 7 2 5 7 9 5 6 2 2 9 14 20 19 19 21 23 26 26 27 29 31 30 28 29 30 30 27 22 20 22 21 26 24 20 16 13 17
3 1 5 10 6 11 7 7 1 1 1 8 6 2 2 4 6 6 13 9 15 19 21 22 22 28 29 30 29 27 25 25 24 21 21 19 20 19 16 13 18 18 24 23
4 2 5 7 5 2 6 8 5 2 6 6 4 3 4 3 5 4 6 13 11 12 17 20 21 24 24 24 21 17 17 19 21 23 21 20 17 17 17 19 22 23 18 16
4 4 4 6 9 10 5 6 2 1 2 1 5 4 2 3 6 5 3 2 8 13 16 18 17 18 19 16 15 16 17 17 15 12 12 13 16 19 22 22 24 19 17 17
3 4 4 12 3 12 10 6 7 2 2 2 2 5 5 4 5 7 9 10 5 7 11 13 18 19 18 17 15 14 14 12 10 12 15 20 18 19 22 19 17 19 19 19
4 3 2 6 6 3 9 5 3 4 1 1 2 4 6 4 5 6 8 10 11 8 10 12 15 19 18 15 15 15 12 13 13 13 18 19 20 19 22 22 20 20 17 15
3 3 3 1 3 4 7 9 8 3 2 4 1 1 6 2 6 7 8 8 11 14 14 15 17 17 17 17 18 17 15 15 14 13 17 19 22 22 23 20 21 19 14 9
4 5 8 5 4 4 8 10 10 6 2 4 2 6 2 4 6 8 9 4 4 11 13 14 17 22 26 24 22 20 18 15 12 10 13 19 23 27 27 25 20 14 9 8
10 2 3 6 7 7 10 12 11 5 3 6 2 4 4 4 5 9 11 9 7 9 11 14 19 26 28 27 26 21 17 10 8 14 18 22 25 25 25 19 14 9 5 5
6 4 5 2 5 6 7 12 11 8 8 6 5 1 9 4 6 6 8 13 14 16 18 20 21 25 28 31 29 23 17 17 15 18 17 16 17 15 14 12 8 5 5 5
6 6 3 3 3 3 4 6 9 11 6 6 6 8 7 10 12 10 7 13 16 19 22 25 28 30 31 30 26 34 21 18 23 20 17 13 16 14 10 7 4 2 3 3
14 4 3 3 3 3 2 8 6 3 9 6 8 11 14 17 14 13 10 13 20 23 25 28 28 27 29 35 41 30 24 22 22 24 23 19 13 10 6 3 1 1 1 3
9 9 4 3 3 1 5 12 14 7 5 3 6 13 16 17 7 3 8 14 22 25 26 26 25 24 29 35 35 27 27 25 24 22 17 14 10 7 4 4 4 3 4 7
4 3 2 3 4 2 11 16 5 5 2 16 7 13 19 4 4 18 16 19 22 24 26 27 27 29 30 29 26 28 28 26 22 19 15 11 8 5 5 5 6 5 6 8
2 2 1 1 3 2 16 5 9 11 14 15 9 16 16 17 25 24 22 25 24 26 26 27 29 28 26 23 23 25 21 18 14 14 15 13 11 9 9 7 7 8 9 11
3 4 4 4 3 2 9 8 19 16 15 10 16 19 22 24 25 25 27 29 27 27 27 29 30 30 26 22 15 15 16 17 15 12 11 14 12 12 11 10 11 11 12 12
7 8 3 4 4 15 3 18 22 18 12 9 20 26 25 30 26 26 29 32 31 31 30 30 29 28 25 18 15 13 16 15 13 14 13 12 12 11 11 11 12 12 13 11
3 10 7 4 9 13 3 28 22 18 5 17 22 28 28 30 28 29 31 34 33 31 28 25 24 24 23 22 20 18 17 16 17 17 16 14 12 11 12 12 12 13 14 14
3 1 2 3 9 4 15 27 16 7 4 12 22 23 23 28 35 32 31 29 29 27 23 22 23 23 23 21 21 20 18 15 15 16 15 13 13 12 11 11 14 15 15 13
Wind_Direction
197 212 218 208 212 231 210 211 228 222 217 210 220 218 233 263 230 233 214 203 195 188 185 191 196 194 197 203 205 207 206 199 197 195 195 196 201 203 205 205 202 203 208 215
185 228 245 237 210 229 241 249 206 224 217 211 211 227 227 243 251 236 207 187 185 181 184 182 183 186 190 199 208 210 208 206 204 206 205 206 207 209 215 209 210 220 219 221
234 209 175 252 206 220 233 254 212 285 191 203 194 216 219 234 241 257 220 211 194 188 183 183 184 187 191 199 209 211 210 209 209 210 210 211 211 214 212 217 208 198 205 215
243 235 263 250 218 215 233 213 248 265 187 194 201 192 214 210 214 228 215 200 196 191 190 185 185 191 199 203 206 210 209 206 209 210 213 216 214 209 214 206 199 205 212 215
312 177 190 231 210 205 235 210 230 283 254 207 194 249 167 205 215 216 208 195 196 195 190 189 194 197 197 198 200 202 204 207 211 213 215 216 213 219 243 225 228 225 235 221
249 222 176 235 216 219 141 240 256 222 223 204 181 222 182 194 209 207 203 189 191 194 194 192 191 189 191 195 198 201 204 208 212 214 216 222 234 245 246 241 240 240 219 195
187 207 193 204 233 223 216 185 148 159 187 189 157 205 323 204 207 211 205 188 188 189 192 191 190 194 195 199 201 203 208 215 218 224 239 240 244 249 248 243 219 202 172 175
265 186 179 196 198 187 193 193 172 160 181 160 139 211 127 254 207 215 211 205 185 186 191 196 197 199 200 201 204 209 215 224 238 248 241 228 228 234 239 238 229 205 218 191
303 93 186 194 184 177 171 206 318 70 39 165 172 202 160 83 136 177 188 196 189 184 187 188 190 201 207 215 221 227 227 226 227 229 240 246 247 235 219 201 187 195 178 181
312 299 185 185 183 219 221 150 197 202 165 172 149 174 105 59 70 80 171 200 205 188 183 186 191 198 206 213 213 219 226 228 228 238 243 243 232 215 194 184 190 189 186 189
294 286 132 178 208 187 168 190 80 51 326 143 141 141 69 357 339 335 329 225 213 205 195 182 182 187 195 202 219 223 219 218 217 225 223 201 197 191 186 180 184 192 183 175
233 300 195 204 252 220 203 190 207 260 146 54 21 121 110 52 14 344 326 309 261 206 201 190 188 189 191 198 202 195 191 191 193 186 174 167 167 180 177 178 198 179 178 178
353 247 162 143 130 162 209 185 153 114 58 52 15 117 165 54 30 13 332 298 272 215 203 188 180 180 178 174 173 170 175 179 175 185 185 194 189 184 190 194 174 172 178 183
208 284 330 345 132 170 188 190 185 189 162 146 236 226 206 356 28 10 346 301 248 217 188 181 178 170 160 169 162 158 166 177 184 184 202 208 203 195 181 174 170 171 176 191
34 5 340 316 256 252 204 182 175 201 134 195 188 231 79 36 30 11 6 13 176 191 185 174 167 163 165 162 159 157 162 164 182 202 209 193 164 166 163 161 161 171 188 218
346 3 309 310 340 217 213 193 189 188 184 254 239 246 134 94 76 41 35 52 107 140 160 162 170 169 165 160 162 167 157 159 201 195 175 150 143 145 149 157 161 180 207 253
304 329 343 316 17 141 221 215 204 195 208 217 218 270 163 109 78 44 62 75 70 87 112 142 156 159 163 170 170 138 117 103 109 107 122 138 153 151 149 162 172 205 250 279
276 316 293 303 324 183 57 28 231 234 244 181 113 138 146 124 93 64 69 107 104 108 115 125 134 143 150 143 123 122 124 134 135 133 149 157 171 176 173 181 167 205 257 296
218 266 297 309 274 329 78 26 355 292 269 198 174 144 135 128 104 54 72 106 118 122 119 122 130 136 138 141 141 138 135 148 149 151 158 159 161 153 151 132 110 306 338 25
189 240 329 324 295 351 34 328 313 272 255 351 179 157 145 163 126 105 106 117 120 124 129 133 141 143 145 146 152 148 146 149 153 150 152 149 137 107 123 137 109 87 46 20
145 181 215 238 270 110 348 332 311 202 15 331 241 180 154 109 60 141 138 123 127 128 133 133 134 138 140 151 152 142 143 140 142 142 142 142 147 127 131 91 73 52 38 36
72 301 282 273 263 111 6 27 347 326 307 309 217 168 136 118 126 133 134 128 129 127 125 128 126 127 128 137 145 137 131 118 119 126 123 122 120 116 101 94 75 63 52 47
56 11 321 354 30 9 337 346 323 312 291 290 163 144 140 136 135 136 133 136 130 121 125 128 129 129 125 124 125 127 131 141 143 140 131 122 112 109 97 86 80 71 64 61
329 3 278 357 341 345 57 356 343 335 311 221 175 156 149 140 140 141 137 130 128 132 133 133 134 135 137 142 143 147 140 138 133 126 121 120 116 110 102 91 77 66 61 54
300 314 328 311 2 353 262 336 336 341 41 140 150 151 147 145 146 143 135 136 140 140 140 142 139 136 134 135 134 132 131 135 133 133 128 119 117 105 91 80 73 64 62 57
236 90 355 301 328 293 302 326 346 354 107 139 144 140 145 150 147 147 144 144 141 140 138 135 135 138 136 138 131 127 125 129 128 124 123 121 111 105 95 85 73 61 52 40
Height
1459 1460 1458 1456 1449 1444 1440 1440 1438 1435 1433 1436 1432 1437 1438 1433 1435 1434 1438 1443 1447 1449 1451 1455 1459 1464 1469 1475 1479 1484 1489 1493 1497 1501 1505 1508 1511 1512 1515 1518 1521 1526 1528 1530
1457 1458 1456 1452 1450 1447 1441 1438 1432 1429 1429 1434 1434 1436 1434 1430 1433 1431 1436 1439 1443 1448 1450 1453 1457 1461 1466 1471 1477 1481 1485 1489 1493 1498 1502 1506 1507 1508 1511 1510 1510 1514 1521 1523
1446 1446 1452 1451 1444 1442 1444 1448 1430 1428 1426 1431 1431 1435 1430 1426 1430 1430 1431 1434 1437 1440 1444 1449 1454 1458 1464 1468 1472 1476 1481 1487 1492 1498 1502 1504 1505 1508 1509 1511 1511 1512 1513 1520
1442 1444 1447 1444 1438 1434 1437 1439 1431 1429 1426 1427 1421 1424 1424 1420 1424 1425 1426 1429 1432 1437 1442 1447 1450 1454 1460 1464 1470 1475 1481 1488 1492 1496 1499 1502 1503 1505 1508 1510 1511 1510 1515 1519
1437 1438 1444 1437 1430 1430 1429 1426 1426 1425 1424 1422 1423 1420 1412 1421 1420 1415 1417 1423 1427 1432 1437 1443 1447 1454 1458 1463 1468 1473 1479 1484 1489 1492 1495 1499 1502 1505 1508 1508 1508 1511 1514 1515
1434 1434 1433 1430 1429 1426 1431 1428 1425 1426 1423 1427 1415 1415 1410 1411 1400 1407 1412 1421 1425 1430 1436 1442 1448 1453 1457 1461 1465 1470 1476 1481 1486 1490 1494 1497 1499 1502 1503 1504 1504 1506 1508 1508
1427 1430 1429 1429 1431 1426 1425 1422 1428 1429 1426 1418 1418 1420 1400 1400 1404 1405 1409 1416 1422 1426 1431 1437 1442 1448 1454 1458 1463 1468 1473 1478 1483 1487 1490 1493 1495 1497 1498 1499 1501 1502 1506 1511
1427 1424 1423 1421 1421 1418 1418 1417 1418 1427 1424 1413 1420 1414 1399 1403 1403 1406 1408 1412 1419 1424 1430 1434 1439 1446 1452 1457 1461 1467 1471 1475 1479 1482 1484 1487 1490 1492 1494 1496 1496 1500 1504 1509
1424 1419 1416 1416 1414 1414 1418 1420 1415 1420 1424 1409 1410 1408 1402 1402 1403 1405 1407 1411 1417 1424 1427 1432 1437 1442 1449 1454 1460 1464 1469 1472 1475 1478 1480 1484 1486 1489 1490 1492 1496 1500 1503 1504
1424 1419 1414 1414 1415 1414 1411 1413 1421 1419 1421 1415 1418 1414 1408 1407 1405 1406 1408 1411 1415 1421 1426 1430 1435 1440 1446 1451 1457 1461 1465 1469 1473 1475 1478 1479 1481 1485 1488 1490 1496 1500 1503 1506
1425 1423 1418 1415 1413 1411 1414 1413 1417 1418 1421 1412 1419 1415 1414 1413 1411 1409 1410 1414 1416 1419 1423 1429 1435 1440 1444 1450 1454 1458 1462 1465 1469 1472 1475 1477 1479 1484 1488 1490 1495 1499 1502 1506
1425 1420 1415 1413 1410 1408 1409 1410 1411 1415 1422 1418 1415 1417 1417 1417 1416 1413 1411 1411 1415 1419 1423 1428 1432 1437 1442 1447 1451 1455 1460 1465 1468 1471 1474 1478 1480 1485 1488 1492 1494 1499 1504 1508
1425 1418 1413 1414 1413 1412 1411 1412 1414 1417 1419 1418 1414 1414 1416 1418 1418 1418 1416 1413 1412 1418 1422 1427 1432 1436 1441 1446 1449 1453 1460 1465 1470 1473 1475 1478 1481 1485 1488 1492 1497 1504 1507 1510
1427 1421 1416 1412 1407 1408 1412 1411 1412 1411 1417 1419 1415 1410 1415 1417 1419 1419 1418 1415 1414 1416 1422 1427 1432 1437 1443 1445 1449 1454 1460 1466 1471 1475 1478 1480 1481 1483 1486 1490 1498 1503 1509 1511
1430 1423 1417 1411 1410 1409 1403 1406 1411 1411 1413 1412 1410 1412 1414 1421 1421 1421 1419 1416 1415 1417 1420 1426 1430 1434 1438 1444 1449 1456 1462 1468 1472 1475 1478 1481 1479 1479 1486 1493 1497 1505 1507 1510
1433 1430 1426 1416 1407 1406 1405 1402 1405 1409 1412 1411 1412 1413 1418 1422 1423 1423 1422 1420 1419 1421 1424 1428 1430 1434 1439 1445 1449 1455 1462 1469 1472 1475 1477 1484 1483 1483 1487 1498 1501 1504 1506 1509
1440 1433 1426 1417 1409 1405 1413 1404 1403 1405 1403 1405 1411 1407 1418 1424 1425 1426 1425 1423 1423 1422 1424 1429 1434 1439 1442 1444 1449 1458 1466 1472 1474 1479 1488 1492 1493 1495 1497 1500 1498 1501 1506 1507
1439 1436 1430 1417 1412 1417 1402 1402 1400 1400 1399 1405 1408 1412 1416 1425 1428 1428 1428 1426 1426 1426 1428 1430 1434 1438 1443 1451 1456 1462 1469 1473 1471 1475 1484 1492 1493 1494 1499 1503 1499 1501 1507 1506
1443 1440 1429 1423 1415 1408 1406 1412 1413 1406 1401 1405 1407 1414 1421 1426 1427 1432 1431 1431 1430 1430 1433 1435 1439 1444 1450 1453 1456 1462 1468 1472 1474 1473 1484 1491 1498 1498 1501 1500 1500 1503 1508 1507
1440 1441 1436 1429 1419 1413 1419 1416 1414 1412 1408 1409 1410 1413 1417 1422 1419 1434 1435 1436 1435 1435 1436 1440 1444 1449 1453 1459 1462 1466 1469 1473 1478 1480 1486 1492 1494 1497 1498 1501 1503 1508 1509 1503
1435 1436 1435 1432 1423 1417 1423 1416 1411 1411 1418 1412 1412 1413 1418 1419 1424 1432 1436 1438 1439 1441 1442 1445 1447 1452 1458 1465 1471 1470 1474 1478 1483 1487 1491 1494 1495 1497 1503 1503 1504 1507 1505 1501
1430 1431 1427 1425 1421 1422 1425 1417 1421 1420 1416 1414 1412 1415 1422 1427 1429 1433 1439 1440 1444 1445 1447 1450 1450 1460 1469 1473 1474 1477 1482 1487 1492 1494 1495 1497 1497 1500 1502 1504 1504 1505 1503 1500
1438 1439 1438 1432 1429 1429 1429 1428 1424 1419 1416 1414 1414 1419 1423 1429 1433 1437 1441 1442 1448 1447 1453 1456 1460 1468 1474 1477 1481 1482 1486 1489 1491 1494 1496 1498 1501 1502 1502 1504 1505 1504 1503 1503
1441 1440 1434 1432 1430 1429 1427 1426 1422 1416 1414 1412 1414 1417 1424 1428 1435 1443 1446 1445 1449 1452 1461 1465 1470 1472 1476 1480 1483 1487 1490 1493 1494 1494 1496 1500 1504 1505 1505 1506 1505 1503 1503 1506
1446 1443 1436 1431 1431 1427 1427 1426 1423 1417 1414 1414 1418 1419 1424 1430 1437 1441 1445 1450 1456 1460 1465 1470 1472 1475 1478 1483 1486 1489 1492 1495 1496 1498 1500 1502 1506 1506 1504 1504 1507 1504 1505 1507
1445 1443 1442 1438 1438 1439 1433 1425 1422 1420 1418 1420 1420 1424 1429 1433 1434 1442 1448 1454 1457 1461 1467 1471 1473 1477 1481 1485 1487 1490 1493 1496 1498 1499 1502 1505 1505 1506 1506 1507 1505 1507 1508 1509